Weather in Zcherbinka

Russia / Moscow Oblast     55˚30′31″N   37˚33′47″E
temp.,
°C
wind,
m/s
gust,
m/s
humid.,
%
clouds,
%
prec.,
mm/h
press.,
hPa
HPBL,
m
17 january, sun
sun1700:00−18˚nnw5995100 1.2 1009505
03:00−20˚nnw4895100 1.3 1011415
06:00−22˚nnw4896100 0.1 1012283
09:00−25˚nnw359897 0.1 1014102
12:00−22˚n359680 0.0 1016236
15:00−21˚nnw249681 0.0 1016190
18:00−23˚n239839 0.0 101822
21:00−24˚n239832 0.0 101920
18 january, mon
mon1800:00−23˚nne229833 0.0 102021
03:00−23˚nnw019967 0.0 102020
06:00−25˚wsw1110068 0.0 102020
09:00−25˚sw0010043 0.0 102020
12:00−19˚nne019478 0.0 102191
15:00−19˚nnw119690 0.0 101920
18:00−20˚wsw1196100 0.0 101920
21:00−20˚sw0095100 0.0 101920
19 january, tue
tue1900:00−18˚wnw1194100 0.0 101920
03:00−18˚wnw1194100 0.0 101920
06:00−18˚wnw1193100 0.0 101820
09:00−18˚nw1191100 0.0 101820
12:00−15˚wnw1288100 0.0 1017181
15:00−14˚wnw1292100 0.0 1017232
18:00−16˚wnw1296100 0.0 101720
21:00−15˚wnw2296100 0.2 101729
20 january, wed
wed2000:00−15˚nw229696 0.1 101847
03:00−17˚wnw229789 0.2 101820
06:00−18˚nw239787 0.0 101926
09:00−18˚wnw239786 0.1 102033
12:00−14˚w239579 0.0 1020139
15:00−13˚w239572 0.0 1021123
18:00−17˚wsw33960 0.0 102228
21:00−18˚sw34960 0.0 102246
21 january, thu
thu2100:00−18˚sw34960 0.0 102277
03:00−18˚ssw479236 0.0 1022139
06:00−18˚ssw4119183 0.0 1019206
09:00−14˚ssw6138992 0.0 1017338
12:00−9˚ssw71493100 0.1 1014522
15:00−7˚sw71491100 0.6 1012602
18:00−7˚sw71489100 0.1 1011530
21:00−3˚sw81691100 0.1 1009512